This demonstration page uses our WeatherBlox Daily Observations layout. Learn more.

Left ArrowRight Arrow

39.92423, -83.80882

Hourly Observations for March 16, 2018

Temp ( °F °C ) Dew Point ( °F °C ) Humidity (%) Winds ( mph kmh ) Pressure ( in mb ) Visibility ( mi km ) Precip ( " mm )
12:56 am 00:56 Clear 31 -0.6 19 -7.2 61 61 NNW 17 28 29.94 1014 10 16 N/A
1:56 am 01:56 Clear 29 -1.7 18 -7.8 63 63 NNW 17 28 29.96 1015 10 16 N/A
2:56 am 02:56 Clear 27 -2.8 14 -10 58 58 NNW 16 26 29.99 1016 10 16 N/A
3:56 am 03:56 Clear 25 -3.9 13 -10.6 60 60 NNW 15 24 30.02 1017 10 16 N/A
4:56 am 04:56 Clear 22 -5.6 11 -11.7 63 63 NNW 10 17 30.06 1018 10 16 N/A
5:56 am 05:56 Clear 22 -5.6 11 -11.7 63 63 N 10 17 30.08 1019 10 16 N/A
6:56 am 06:56 Clear 20 -6.7 10 -12.2 65 65 N 10 17 30.10 1019 10 16 N/A
7:56 am 07:56 Sunny 18 -7.8 10 -12.2 71 71 N 8 13 30.14 1021 10 16 N/A
8:56 am 08:56 Sunny 23 -5 12 -11.1 63 63 N 9 15 30.17 1022 10 16 N/A
9:56 am 09:56 Sunny 25 -3.9 12 -11.1 58 58 NNE 7 11 30.20 1023 10 16 N/A
10:56 am 10:56 Sunny 27 -2.8 13 -10.6 55 55 VRB 7 11 30.22 1023 10 16 N/A
11:56 am 11:56 Sunny 30 -1.1 13 -10.6 49 49 VRB 7 11 30.22 1023 10 16 N/A
12:56 pm 12:56 Sunny 33 0.6 12 -11.1 42 42 E 7 11 30.22 1023 10 16 N/A
1:56 pm 13:56 Sunny 35 1.7 11 -11.7 37 37 VRB 3 6 30.21 1023 10 16 N/A
2:56 pm 14:56 Sunny 37 2.8 11 -11.7 34 34 ENE 12 19 30.17 1022 10 16 N/A
3:56 pm 15:56 Sunny 38 3.3 12 -11.1 34 34 VRB 5 7 30.16 1021 10 16 N/A
4:56 pm 16:56 Sunny 38 3.3 12 -11.1 34 34 VRB 3 6 30.15 1021 10 16 N/A
5:56 pm 17:56 Sunny 39 3.9 14 -10 36 36 ENE 5 7 30.14 1021 10 16 N/A
6:56 pm 18:56 Sunny 38 3.3 14 -10 37 37 ESE 7 11 30.13 1020 10 16 N/A
7:56 pm 19:56 Clear 34 1.1 16 -8.9 48 48 E 7 11 30.12 1020 10 16 N/A
8:56 pm 20:56 Clear 34 1.1 15 -9.4 46 46 SE 5 7 30.14 1021 10 16 N/A
9:56 pm 21:56 Clear 32 undefined 17 -8.3 54 54 E 3 6 30.13 1020 10 16 N/A
10:56 pm 22:56 Clear 30 -1.1 19 -7.2 64 64 ESE 3 6 30.12 1020 10 16 N/A
11:56 pm 23:56 Clear 27 -2.8 17 -8.3 66 66 E 7 11 30.10 1019 10 16 N/A

Powered by AerisWeather